Preview of NWS' New Version of Forecast
This preview is not operational and should not be used for support decisions.

Regional Weather Roundup (RWR)

Issued by National Weather Service (NWS)

                            
000
ASUS45 KBOI 182110
RWRID 

IDAHO REGIONAL WEATHER ROUNDUP
NATIONAL WEATHER SERVICE BOISE ID
200 PM MST MON FEB 18 2019

NOTE: "FAIR" INDICATES FEW OR NO CLOUDS BELOW 12000 FEET
WITH NO SIGNIFICANT WEATHER AND/OR OBSTRUCTIONS TO VISIBILITY

IDZ012-014-182200-
SOUTHWEST IDAHO

  
CITY           SKY/WX    TMP DP  RH WIND       PRES   REMARKS
BOISE          CLOUDY    33  18  53 N15       30.14F WCI  23          
CALDWELL       PTSUNNY   34  17  50 NW13      30.18F WCI  25          
MOUNTAIN HOME  CLOUDY    33  28  83 NW21        N/A  WCI  21          
$$

IDZ016-017-182200-
SOUTHCENTRAL IDAHO

  
CITY           SKY/WX    TMP DP  RH WIND       PRES   REMARKS
BURLEY         MIX PCPN  25  19  78 W12G18    30.04F WCI  14          
JEROME         CLOUDY    24  21  88 W9        30.05F WCI  14          
TWIN FALLS     CLOUDY    26  20  77 W16       30.05F WCI  14          
$$

IDZ019>023-182200-
SOUTHEAST IDAHO

  
CITY           SKY/WX    TMP DP  RH WIND       PRES   REMARKS
IDAHO FALLS    SUNNY     15   7  70 CALM      30.02F                  
POCATELLO      CLOUDY    23  15  71 NW7       30.03F WCI  15          
REXBURG        SUNNY     17   8  67 SW9       30.00F WCI   6          
$$

IDZ006-010-011-018-031-032-182200-
CENTRAL IDAHO MOUNTAINS

  
CITY           SKY/WX    TMP DP  RH WIND       PRES   REMARKS
MCCALL         SUNNY     21   6  52 N8        30.03F WCI  11          
HAILEY         CLOUDY    19  14  79 SE7       29.98F WCI  10          
STANLEY          N/A     19   9  65 N5        29.91F WCI  12          
SALMON         CLOUDY    22  13  68 W3        30.05F                  
CHALLIS        CLOUDY    23  14  68 NW3       29.96F                  
$$

IDZ002-004-006-007-026-182200-
NORTHERN IDAHO

  
CITY           SKY/WX    TMP DP  RH WIND       PRES   REMARKS
LEWISTON       CLOUDY    29  15  56 CALM      30.34F                  
LOWELL         NOT AVBL                                               
COEUR D'ALENE  PTSUNNY   31   9  39 CALM      30.28F                  
MULLAN PASS    FLURRIES  10   2  69 CALM      29.97S                  
$$